Change the Weather History Date:

Wednesday, March 6, 2013

  Actual Average Record
Temperature  
Mean Temperature 47 °F -  
Max Temperature 62 °F 62 °F 84 °F (2006)
Min Temperature 32 °F 34 °F 19 °F (1954)
Degree Days  
Heating Degree Days 18    
Moisture  
Dew Point 14 °F    
Average Humidity 31    
Maximum Humidity 51    
Minimum Humidity 16    
Precipitation  
Precipitation 0.00 in - - ()
Sea Level Pressure  
Sea Level Pressure 30.18 in    
Wind  
Wind Speed 5 mph (SE)    
Max Wind Speed 22 mph    
Max Gust Speed 30 mph    
Visibility 10 miles    
Events      
Averages and records for this station are not official NWS values.
T = Trace of Precipitation, MM = Missing Value Source: NWS Daily Summary

Daily Weather History Graph

Daily Weather History Graph

Search for Another Location

Airport or City:

Trip Planner

Search our weather history database for the weather conditions in past years. The results will help you decide how hot, cold, wet, or windy it might be!

Date:

Astronomy

Mar. 06, 2013 Rise Set
Actual Time 6:14 AM MST 5:54 PM MST
Civil Twilight 5:49 AM MST 6:18 PM MST
Nautical Twilight 5:21 AM MST 6:47 PM MST
Astronomical Twilight 4:52 AM MST 7:16 PM MST
Moon 2:11 AM MST (3/6) 12:51 PM MST (3/6)
Length of Visible Light 12h 29m
Length of Day
11h 40m
Waning Crescent, 29% of the Moon is Illuminated
Mar 6
Waning Crescent
Mar 11
New
Mar 19
First Quarter
Mar 27
Full
Apr 2
Last Quarter

Hourly Weather History & Observations

Time (MST) Temp. Windchill Dew Point Humidity Pressure Visibility Wind Dir Wind Speed Gust Speed Precip Events Conditions
12:15 AM 33.8 °F - 15.8 °F 48% 30.33 in 10.0 mi Calm Calm - N/A   Clear
12:35 AM 32.0 °F - 15.8 °F 51% 30.33 in 10.0 mi Calm Calm - N/A   Clear
12:55 AM 32.0 °F - 15.8 °F 51% 30.33 in 10.0 mi Calm Calm - N/A   Clear
1:15 AM 33.8 °F - 15.8 °F 48% 30.32 in 10.0 mi Calm Calm - N/A   Clear
1:35 AM 32.0 °F - 15.8 °F 51% 30.31 in 10.0 mi Calm Calm - N/A   Clear
1:55 AM 32.0 °F - 15.8 °F 51% 30.31 in 10.0 mi Calm Calm - N/A   Clear
2:15 AM 32.0 °F - 15.8 °F 51% 30.30 in 10.0 mi Calm Calm - N/A   Clear
2:35 AM 32.0 °F - 14.0 °F 48% 30.29 in 10.0 mi Calm Calm - N/A   Clear
2:55 AM 32.0 °F 24.2 °F 14.0 °F 48% 30.28 in 10.0 mi ESE 9.2 mph - N/A   Clear
3:15 AM 33.8 °F 27.0 °F 10.4 °F 38% 30.28 in 10.0 mi ESE 8.1 mph - N/A   Clear
3:35 AM 35.6 °F - 10.4 °F 35% 30.28 in 10.0 mi Calm Calm - N/A   Clear
3:55 AM 35.6 °F - 10.4 °F 35% 30.28 in 10.0 mi Calm Calm - N/A   Clear
5:50 AM 32.0 °F 28.7 °F 12.2 °F 44% 30.29 in 10.0 mi ESE 3.5 mph - N/A   Scattered Clouds
6:50 AM 37.4 °F 33.8 °F 10.4 °F 33% 30.29 in 10.0 mi ESE 4.6 mph - N/A   Mostly Cloudy
7:50 AM 42.8 °F 35.4 °F 10.4 °F 27% 30.31 in 10.0 mi SE 15.0 mph 19.6 mph N/A   Mostly Cloudy
8:50 AM 46.4 °F 39.5 °F 10.4 °F 23% 30.32 in 10.0 mi SSE 17.3 mph 21.9 mph N/A   Overcast
9:50 AM 48.2 °F - 10.4 °F 22% 30.30 in 10.0 mi SSE 17.3 mph 25.3 mph N/A   Clear
10:50 AM 53.6 °F - 12.2 °F 19% 30.24 in 10.0 mi SE 21.9 mph 29.9 mph N/A   Clear
11:50 AM 57.2 °F - 14.0 °F 18% 30.19 in 10.0 mi SE 20.7 mph 27.6 mph N/A   Clear
12:50 PM 59.0 °F - 15.8 °F 19% 30.16 in 10.0 mi SE 15.0 mph 24.2 mph N/A   Clear
1:50 PM 60.8 °F - 15.8 °F 17% 30.13 in 10.0 mi SSE 16.1 mph 21.9 mph N/A   Clear
3:50 PM 62.6 °F - 15.8 °F 16% 30.10 in 10.0 mi SE 15.0 mph - N/A   Clear
4:50 PM 59.0 °F - 14.0 °F 17% 30.09 in 10.0 mi SE 13.8 mph - N/A   Clear
5:15 PM 59.0 °F - 14.0 °F 17% 30.08 in 10.0 mi SE 8.1 mph - N/A   Clear
5:35 PM 57.2 °F - 15.8 °F 20% 30.08 in 10.0 mi SE 6.9 mph - N/A   Clear
5:50 PM 55.4 °F - 15.8 °F 21% 30.09 in 10.0 mi SE 6.9 mph - N/A   Clear
5:55 PM 55.4 °F - 15.8 °F 21% 30.09 in 10.0 mi Calm Calm - N/A   Clear
6:15 PM 53.6 °F - 15.8 °F 22% 30.08 in 10.0 mi SE 6.9 mph - N/A   Clear
6:35 PM 50.0 °F - 15.8 °F 26% 30.09 in 10.0 mi Calm Calm - N/A   Clear
6:55 PM 50.0 °F - 15.8 °F 26% 30.08 in 10.0 mi SE 10.4 mph - N/A   Clear
7:15 PM 50.0 °F - 15.8 °F 26% 30.09 in 10.0 mi Calm Calm - N/A   Clear
7:35 PM 50.0 °F - 15.8 °F 26% 30.09 in 10.0 mi ESE 8.1 mph - N/A   Clear
7:55 PM 50.0 °F - 15.8 °F 26% 30.09 in 10.0 mi SE 6.9 mph - N/A   Clear
8:15 PM 48.2 °F - 15.8 °F 27% 30.09 in 10.0 mi SE 8.1 mph - N/A   Clear
8:35 PM 46.4 °F 41.9 °F 15.8 °F 29% 30.09 in 10.0 mi SSE 9.2 mph - N/A   Clear
8:55 PM 46.4 °F - 15.8 °F 29% 30.09 in 10.0 mi Calm Calm - N/A   Clear
9:15 PM 44.6 °F 43.1 °F 14.0 °F 29% 30.09 in 10.0 mi SSE 3.5 mph - N/A   Clear
9:35 PM 44.6 °F 40.2 °F 14.0 °F 29% 30.09 in 10.0 mi SSE 8.1 mph - N/A   Clear
9:55 PM 44.6 °F - 14.0 °F 29% 30.09 in 10.0 mi Calm Calm - N/A   Clear
10:15 PM 44.6 °F - 14.0 °F 29% 30.09 in 10.0 mi Calm Calm - N/A   Clear
10:35 PM 42.8 °F - 14.0 °F 31% 30.09 in 10.0 mi Calm Calm - N/A   Clear
10:55 PM 42.8 °F - 14.0 °F 31% 30.09 in 10.0 mi Calm Calm - N/A   Clear
11:15 PM 41.0 °F - 14.0 °F 33% 30.09 in 10.0 mi Calm Calm - N/A   Clear
11:35 PM 41.0 °F 36.4 °F 14.0 °F 33% 30.09 in 10.0 mi South 6.9 mph - N/A   Clear
11:55 PM 41.0 °F 34.7 °F 14.0 °F 33% 30.07 in 10.0 mi South 10.4 mph - N/A   Clear